Theta_e
327 326 325 324 324 325 326 331 333 331 326 324 320 319 318 318 318 317 317 316 316 316 313 312 312 312 312 311 311 312 313 312
323 323 323 323 327 328 330 330 329 325 322 319 318 317 317 316 316 316 316 315 315 313 312 311 311 310 310 311 309 307 309 310
322 322 322 322 321 320 321 320 318 317 317 316 316 316 315 315 315 316 314 314 313 313 312 311 309 309 309 307 307 309 310 311
321 321 321 320 319 318 318 317 317 316 313 316 315 314 315 315 314 314 315 314 314 311 309 307 306 306 306 305 304 306 308 308
320 320 320 319 318 318 317 317 316 316 314 313 313 314 314 314 314 314 313 311 308 307 306 305 305 305 305 304 307 308 308 308
319 319 319 319 318 318 317 316 316 315 315 315 314 314 312 310 310 309 309 307 306 306 305 304 304 304 304 306 306 307 306 304
319 318 319 319 318 317 317 316 316 315 315 313 312 311 310 310 309 308 307 306 305 303 302 302 302 304 305 305 304 302 300 299
318 318 318 317 317 317 317 317 316 315 314 313 313 311 311 309 308 307 306 304 301 300 301 302 303 303 302 301 300 300 298 297
318 317 317 317 317 316 315 316 315 313 312 312 312 311 309 308 307 306 304 301 300 300 302 303 301 300 300 300 299 298 297 297
317 317 316 316 315 315 314 314 313 312 311 309 308 308 307 306 305 303 300 299 299 300 299 298 300 300 299 298 298 297 296 296
316 316 315 315 314 314 314 312 311 310 309 308 306 305 304 303 302 300 300 300 299 299 298 298 298 298 297 297 296 295 294 294
316 315 314 314 313 313 312 310 309 308 306 305 303 302 301 302 301 300 300 299 298 297 297 297 297 297 296 296 294 293 293 292
314 314 313 312 311 311 310 308 307 306 304 302 301 301 301 302 301 298 297 297 297 297 296 296 295 294 293 293 293 292 291 291
313 313 312 311 310 309 307 306 305 304 302 301 300 300 300 299 297 296 296 296 295 295 294 293 292 291 291 291 290 290 290 290
313 312 310 309 308 306 305 305 304 302 301 300 299 299 299 297 296 296 296 295 294 293 292 291 290 290 290 290 290 290 289 288
311 310 308 306 305 304 304 304 302 301 300 299 299 298 298 297 296 295 294 293 291 291 290 290 290 290 290 289 289 288 288 287
309 307 306 305 304 303 303 303 301 300 300 299 298 298 297 296 295 294 293 291 290 290 290 289 289 289 289 288 288 287 287 286
307 306 306 304 303 302 301 302 301 300 299 299 298 298 297 295 294 294 291 291 290 290 289 289 289 288 288 288 287 287 286 284
307 305 303 302 301 300 301 301 301 301 300 299 298 297 296 295 294 293 291 290 290 289 289 289 288 288 287 286 286 285 283 282
Wind_Speed
15 14 10 3 2 3 2 3 6 10 8 6 6 7 7 8 8 10 15 17 17 18 21 27 28 31 34 30 26 28 32 32
16 16 12 8 9 9 9 8 8 2 3 5 7 6 7 6 9 12 15 15 22 22 27 23 25 29 26 27 29 31 31 29
17 15 15 13 11 10 7 4 2 5 1 4 7 8 10 10 10 11 13 19 22 28 28 30 21 24 28 29 24 25 26 25
14 14 13 11 12 11 9 6 5 6 3 2 6 8 7 10 13 19 29 25 25 27 20 21 24 26 32 30 26 26 29 27
12 10 10 10 10 10 7 5 4 7 9 7 8 7 10 13 17 18 22 25 22 19 22 24 27 28 31 27 20 23 25 27
9 9 9 7 6 7 5 4 7 9 10 10 13 14 18 20 16 18 19 18 19 23 25 26 28 31 31 22 22 22 21 22
7 7 6 7 7 6 6 7 8 10 13 15 15 17 15 17 18 19 17 22 26 27 28 28 28 21 20 21 22 26 24 24
6 5 5 5 5 7 7 9 11 13 13 14 14 14 15 16 18 20 24 30 27 28 25 22 19 21 24 26 27 19 20 24
3 3 6 6 7 8 10 11 12 16 16 16 16 18 15 16 23 27 29 21 25 22 17 17 23 24 23 15 8 15 17 20
5 6 9 10 11 12 12 13 15 16 18 18 17 16 19 24 26 28 21 23 18 20 24 22 21 23 21 17 20 23 24 20
9 11 13 13 14 13 14 16 15 16 18 16 16 18 18 23 25 18 20 18 20 20 18 18 18 12 15 22 25 27 26 22
10 13 12 14 17 20 18 19 15 13 14 16 19 21 20 18 14 16 23 25 22 21 22 23 23 24 27 28 19 16 18 19
12 13 14 17 16 15 16 15 12 14 18 19 20 18 18 17 20 26 25 17 19 18 21 23 25 23 21 19 19 19 20 18
15 14 14 19 20 21 16 14 16 16 19 20 20 19 21 23 19 19 17 17 19 21 21 22 22 22 20 21 21 20 18 19
17 16 19 20 19 16 16 18 16 18 20 21 19 20 22 16 15 16 18 18 20 22 23 22 22 22 22 22 19 20 24 31
15 19 20 17 18 17 19 19 21 19 21 21 20 22 17 15 19 18 19 18 21 21 22 22 22 22 23 22 25 28 31 36
20 18 18 18 18 20 21 22 21 22 20 22 26 18 16 16 16 18 17 19 19 20 20 21 21 21 24 27 29 31 33 34
20 18 19 19 21 23 26 23 24 23 29 26 29 26 16 14 15 15 18 18 19 19 21 21 20 20 23 28 34 33 34 34
18 19 21 21 21 25 26 26 29 28 30 35 27 22 16 13 14 14 16 17 19 21 20 19 23 28 30 31 36 33 32 31
Wind_Direction
134 127 133 127 252 257 172 179 171 200 193 265 269 272 289 270 288 272 268 281 289 281 310 315 312 310 306 302 289 286 287 289
79 84 91 83 92 126 125 203 207 149 213 236 238 235 254 272 277 296 292 298 288 298 308 304 295 298 290 284 285 287 288 289
77 81 96 103 103 92 97 73 146 156 129 282 319 316 310 317 317 280 317 316 298 296 300 304 310 293 291 296 302 301 294 294
91 83 85 97 96 89 76 61 5 330 80 268 283 308 298 290 286 280 298 278 286 308 316 310 304 301 297 300 296 293 293 287
92 93 84 75 76 80 57 63 36 326 333 321 308 321 304 288 293 285 290 295 309 296 296 304 302 298 294 306 293 276 274 279
103 104 95 79 64 54 49 30 349 333 338 325 321 309 310 317 321 316 303 308 291 293 301 297 296 294 298 286 279 275 276 285
106 103 104 80 56 23 5 349 333 326 313 313 316 321 324 315 319 318 313 303 306 310 307 302 302 301 286 281 289 300 305 315
73 61 30 5 350 336 328 320 326 328 327 330 314 308 308 312 316 312 308 315 321 316 315 312 298 290 292 288 290 291 309 312
4 14 359 349 341 334 329 318 319 320 316 303 305 305 306 305 302 302 312 315 312 328 313 306 301 293 297 284 294 310 312 307
315 347 325 320 317 319 319 315 317 320 323 328 329 312 310 308 302 307 314 324 327 310 311 313 301 294 277 297 303 308 309 296
341 334 338 328 331 319 310 310 316 317 316 315 318 316 310 305 312 326 320 308 306 306 313 301 302 305 292 300 302 300 306 300
337 344 340 334 322 318 307 314 318 320 310 314 314 316 319 314 314 309 303 302 307 309 309 308 308 301 303 304 313 317 306 305
346 331 327 330 333 326 320 312 313 310 319 318 318 320 305 291 299 304 308 318 320 324 322 316 319 320 320 321 314 312 310 312
339 325 326 325 322 315 311 313 315 315 319 315 315 313 302 304 320 324 324 323 316 317 312 312 310 311 310 308 308 304 283 282
336 334 331 319 316 311 309 312 307 319 313 312 311 311 304 318 320 310 306 313 312 311 311 311 310 309 309 304 295 287 287 303
344 330 321 319 317 313 312 309 313 309 310 307 302 303 286 289 306 309 304 309 310 311 312 312 311 311 305 308 306 305 306 305
333 331 321 318 318 317 312 307 307 304 301 298 295 293 299 307 300 302 304 307 308 311 312 313 315 317 308 308 304 302 304 306
329 319 317 326 324 321 317 312 311 312 311 313 308 287 276 279 294 291 300 303 309 308 309 311 311 306 307 306 302 306 310 310
318 315 319 319 317 315 318 317 310 304 299 305 297 283 267 273 282 289 289 301 306 306 309 304 300 302 303 297 300 307 311 318